Location: Cosy Dell
(34.2789°N, 117.4537°W)
Time: 00:16:22
(UTC+00:00)

Cosmos 2297 - Pass Details

Date: 14 July 2020
Orbit: 835 x 859 km, 71.0° (Epoch: 12 August)

Event Time Altitude Azimuth Distance (km) Brightness Sun altitude
Rises 05:32:48 0° 345° (NNW) 3,432 8.0 -24.6°
Reaches altitude 10° 05:35:23 10° 352° (N) 2,490 7.0 -24.9°
Maximum altitude 05:40:53 47° 65° (ENE) 1,120 4.2 -25.6°
Enters shadow 05:41:17 46° 78° (ENE) 1,132 4.1 -25.6°
